Alamogordo, NM

4:47 PM MST on December 04, 2016 (GMT -0700)
Alamogordo-White Sands Regional

Weather History for KALM - March, 2013

Change the Weather History Date:

Friday, March 8, 2013

  Actual Average Record
Temperature  
Mean Temperature 60 °F -  
Max Temperature 68 °F 69 °F 82 °F (1985)
Min Temperature 51 °F 36 °F 22 °F (1959)
Degree Days  
Heating Degree Days 6    
Growing Degree Days 10 (Base 50)    
Moisture  
Dew Point 30 °F    
Average Humidity 36    
Maximum Humidity 77    
Minimum Humidity 19    
Precipitation  
Precipitation 0.01 in - - ()
Sea Level Pressure  
Sea Level Pressure 29.93 in    
Wind  
Wind Speed 12 mph (South)    
Max Wind Speed 25 mph    
Max Gust Speed 34 mph    
Visibility 10 miles    
Events Rain    
Averages and records for this station are not official NWS values.
T = Trace of Precipitation, MM = Missing Value Source: NWS Daily Summary

Daily Weather History Graph

Daily Weather History Graph

Search for Another Location

Airport or City:

Trip Planner

Search our weather history database for the weather conditions in past years. The results will help you decide how hot, cold, wet, or windy it might be!

Date:

Astronomy

Mar. 08, 2013 Rise Set
Actual Time 6:22 AM MST 6:06 PM MST
Civil Twilight 5:58 AM MST 6:31 PM MST
Nautical Twilight 5:29 AM MST 7:00 PM MST
Astronomical Twilight 5:01 AM MST 7:28 PM MST
Moon 4:00 AM MST (3/8) 3:12 PM MST (3/8)
Length of Visible Light 12h 33m
Length of Day
11h 44m
Waning Crescent, 11% of the Moon is Illuminated
Mar 8
Waning Crescent
Mar 11
New
Mar 19
First Quarter
Mar 27
Full
Apr 2
Last Quarter

Hourly Weather History & Observations

Time (MST) Temp. Dew Point Humidity Pressure Visibility Wind Dir Wind Speed Gust Speed Precip Events Conditions
12:15 AM 62.6 °F 19.4 °F 19% 30.02 in 10.0 mi South 6.9 mph 16.1 mph N/A   Overcast
12:35 AM 62.6 °F 19.4 °F 19% 30.02 in 10.0 mi SSE 12.7 mph - N/A   Mostly Cloudy
12:55 AM 60.8 °F 19.4 °F 20% 30.02 in 10.0 mi SSE 15.0 mph - N/A   Overcast
1:15 AM 60.8 °F 21.2 °F 22% 30.01 in 10.0 mi SSE 10.4 mph 16.1 mph N/A   Overcast
1:55 AM 59.0 °F 19.4 °F 22% 30.00 in 10.0 mi SSE 9.2 mph - N/A   Overcast
2:15 AM 59.0 °F 21.2 °F 23% 29.99 in 10.0 mi SSE 11.5 mph - N/A   Overcast
2:35 AM 59.0 °F 19.4 °F 22% 29.98 in 10.0 mi SSE 11.5 mph - N/A   Overcast
2:55 AM 59.0 °F 19.4 °F 22% 29.98 in 10.0 mi SSE 10.4 mph - N/A   Overcast
3:15 AM 59.0 °F 19.4 °F 22% 29.98 in 10.0 mi SSE 11.5 mph - N/A   Overcast
3:35 AM 59.0 °F 19.4 °F 22% 29.98 in 10.0 mi SSE 9.2 mph - N/A   Overcast
3:55 AM 59.0 °F 19.4 °F 22% 29.98 in 10.0 mi SSE 10.4 mph - N/A   Overcast
4:15 AM 57.2 °F 19.4 °F 23% 29.98 in 10.0 mi SSE 10.4 mph - N/A   Overcast
4:35 AM 57.2 °F 19.4 °F 23% 29.99 in 10.0 mi SSE 10.4 mph - N/A   Overcast
4:55 AM 57.2 °F 19.4 °F 23% 29.99 in 10.0 mi SSE 8.1 mph - N/A   Overcast
5:15 AM 55.4 °F 19.4 °F 25% 29.99 in 10.0 mi SSE 8.1 mph - N/A   Overcast
5:35 AM 53.6 °F 19.4 °F 26% 29.99 in 10.0 mi SSE 8.1 mph - N/A   Mostly Cloudy
5:55 AM 51.8 °F 21.2 °F 30% 29.99 in 10.0 mi SSE 9.2 mph - N/A   Scattered Clouds
6:15 AM 53.6 °F 23.0 °F 30% 29.99 in 10.0 mi SSE 9.2 mph - N/A   Mostly Cloudy
6:35 AM 51.8 °F 23.0 °F 33% 29.99 in 10.0 mi SSE 6.9 mph - N/A   Mostly Cloudy
6:55 AM 51.8 °F 21.2 °F 30% 30.00 in 10.0 mi SSE 4.6 mph - N/A   Mostly Cloudy
7:15 AM 55.4 °F 23.0 °F 29% 30.00 in 10.0 mi SSE 8.1 mph - N/A   Scattered Clouds
7:55 AM 60.8 °F 30.2 °F 31% 30.00 in 10.0 mi SSE 16.1 mph 19.6 mph N/A   Mostly Cloudy
8:15 AM 62.6 °F 28.4 °F 27% 30.00 in 10.0 mi SSE 16.1 mph - N/A   Mostly Cloudy
8:35 AM 62.6 °F 26.6 °F 26% 30.00 in 10.0 mi South 16.1 mph - N/A   Mostly Cloudy
8:55 AM 62.6 °F 26.6 °F 26% 30.00 in 10.0 mi SSE 17.3 mph 20.7 mph N/A   Scattered Clouds
9:15 AM 64.4 °F 28.4 °F 26% 29.98 in 10.0 mi SSE 15.0 mph 21.9 mph N/A   Clear
9:35 AM 64.4 °F 28.4 °F 26% 29.98 in 10.0 mi South 16.1 mph - N/A   Clear
9:55 AM 66.2 °F 28.4 °F 24% 29.98 in 10.0 mi SSW 13.8 mph 21.9 mph N/A   Partly Cloudy
10:15 AM 64.4 °F 28.4 °F 26% 29.98 in 10.0 mi South 17.3 mph 23.0 mph N/A   Mostly Cloudy
10:35 AM 68.0 °F 26.6 °F 21% 29.97 in 10.0 mi SSW 16.1 mph 24.2 mph N/A   Mostly Cloudy
10:55 AM 66.2 °F 28.4 °F 24% 29.96 in 10.0 mi South 20.7 mph 26.5 mph N/A   Mostly Cloudy
11:15 AM 64.4 °F 28.4 °F 26% 29.96 in 10.0 mi South 18.4 mph 24.2 mph N/A   Overcast
11:35 AM 66.2 °F 30.2 °F 26% 29.96 in 10.0 mi South 20.7 mph 26.5 mph N/A   Mostly Cloudy
11:55 AM 66.2 °F 30.2 °F 26% 29.95 in 10.0 mi SSW 16.1 mph 26.5 mph N/A   Scattered Clouds
12:15 PM 66.2 °F 30.2 °F 26% 29.94 in 10.0 mi South 20.7 mph 27.6 mph N/A Rain Light Rain
12:35 PM 66.2 °F 28.4 °F 24% 29.93 in 10.0 mi SSW 17.3 mph 25.3 mph N/A   Scattered Clouds
12:55 PM 68.0 °F 32.0 °F 26% 29.92 in 10.0 mi SSW 20.7 mph 27.6 mph N/A   Scattered Clouds
1:15 PM 66.2 °F 32.0 °F 28% 29.91 in 8.0 mi South 25.3 mph 34.5 mph N/A   Mostly Cloudy
1:35 PM 66.2 °F 32.0 °F 28% 29.90 in 10.0 mi SSW 20.7 mph 27.6 mph N/A   Mostly Cloudy
1:55 PM 66.2 °F 32.0 °F 28% 29.89 in 10.0 mi South 20.7 mph 29.9 mph N/A   Scattered Clouds
2:15 PM 64.4 °F 35.6 °F 34% 29.88 in 10.0 mi SSW 17.3 mph 23.0 mph N/A   Scattered Clouds
2:35 PM 64.4 °F 35.6 °F 34% 29.88 in 10.0 mi SW 19.6 mph 27.6 mph N/A   Mostly Cloudy
2:55 PM 62.6 °F 39.2 °F 42% 29.90 in 8.0 mi SSW 19.6 mph 28.8 mph N/A Rain Light Rain
3:15 PM 59.0 °F 44.6 °F 59% 29.90 in 6.0 mi South 20.7 mph 31.1 mph N/A   Haze
3:55 PM 55.4 °F 48.2 °F 77% 29.90 in 5.0 mi SSW 16.1 mph 25.3 mph 0.01 in Rain Light Rain
4:15 PM 55.4 °F 46.4 °F 72% 29.89 in 10.0 mi South 11.5 mph - N/A   Mostly Cloudy
4:35 PM 57.2 °F 48.2 °F 72% 29.88 in 10.0 mi SE 11.5 mph - N/A   Mostly Cloudy
4:55 PM 55.4 °F 46.4 °F 72% 29.87 in 10.0 mi SSE 12.7 mph - N/A   Scattered Clouds
5:55 PM 57.2 °F 42.8 °F 59% 29.87 in 10.0 mi SSE 15.0 mph - N/A   Partly Cloudy
6:15 PM 57.2 °F 42.8 °F 59% 29.87 in 10.0 mi SSE 12.7 mph - N/A   Clear
6:35 PM 57.2 °F 41.0 °F 55% 29.87 in 10.0 mi SSE 10.4 mph - N/A   Clear
6:55 PM 57.2 °F 41.0 °F 55% 29.86 in 9.0 mi South 17.3 mph - N/A   Partly Cloudy
7:15 PM 57.2 °F 41.0 °F 55% 29.87 in 8.0 mi South 12.7 mph 17.3 mph N/A   Partly Cloudy
7:35 PM 57.2 °F 41.0 °F 55% 29.87 in 7.0 mi SW 6.9 mph - N/A   Scattered Clouds
7:55 PM 57.2 °F 39.2 °F 51% 29.87 in 5.0 mi SSW 8.1 mph - N/A   Haze
8:15 PM 57.2 °F 39.2 °F 51% 29.88 in 5.0 mi SSW 6.9 mph - N/A   Haze
8:55 PM 55.4 °F 37.4 °F 51% 29.86 in 5.0 mi SSW 8.1 mph - N/A   Haze
9:15 PM 55.4 °F 35.6 °F 47% 29.86 in 9.0 mi SSW 11.5 mph 16.1 mph N/A   Partly Cloudy
9:35 PM 55.4 °F 33.8 °F 44% 29.85 in 10.0 mi SSW 12.7 mph - N/A   Scattered Clouds
9:55 PM 55.4 °F 35.6 °F 47% 29.85 in 10.0 mi South 12.7 mph - N/A   Mostly Cloudy
10:15 PM 55.4 °F 35.6 °F 47% 29.85 in 10.0 mi SSW 13.8 mph - N/A   Overcast
10:35 PM 57.2 °F 32.0 °F 38% 29.85 in 10.0 mi SW 12.7 mph 18.4 mph N/A   Mostly Cloudy
10:55 PM 53.6 °F 37.4 °F 54% 29.85 in 10.0 mi SSW 12.7 mph 17.3 mph N/A Rain Light Rain
11:15 PM 53.6 °F 37.4 °F 54% 29.84 in 10.0 mi SSW 10.4 mph - N/A   Overcast
11:35 PM 53.6 °F 37.4 °F 54% 29.85 in 10.0 mi SW 10.4 mph - N/A   Overcast
11:55 PM 53.6 °F 35.6 °F 51% 29.86 in 10.0 mi West 4.6 mph - N/A   Mostly Cloudy